Location: Bailey Volunteer Fire Department
(33.4359°N, 96.1680°W)
Time: 16:35:46
(UTC+00:00)

Cosmos 1900 - Pass Details

Date: 13 December 2025
Orbit: 680 x 735 km, 66.1° (Epoch: 14 January)

Event Time Altitude Azimuth Distance (km) Brightness Sun altitude
Rises 23:45:30 0° 335° (NNW) 3,125 7.7 -6.0°
Reaches altitude 10° 23:47:53 10° 337° (NNW) 2,193 6.9 -6.5°
Maximum altitude 23:52:53 76° 63° (ENE) 728 4.3 -7.4°
Drops below altitude 10° 23:57:45 10° 149° (SSE) 2,144 6.7 -8.4°
Sets 00:00:04 0° 151° (SSE) 3,050 7.5 -8.8°
